User: anonymous   Login
Location: Canyam�s
(41.5996°N, 2.4450°E)
Time: 16:23:57
(UTC+00:00)
Language:

STARLINK-1261 - Orbit

View from above orbital plane
View from above orbital plane
View from above satellite
View from above satellite

Ground track
Ground track

The orbit data is extracted from the following two-line orbital elements,

1 45571C 20025AS  20228.37548148 -.01125855  00000-0 -43295-1 0  2283
2 45571  52.9997 200.5780 0001418  68.3207  86.4722 15.26998743    11
Epoch (UTC): 15 August 2020 09:00:41
Eccentricity: 0.0001418
inclination: 52.9997°
perigee height: 484 km
apogee height: 486 km
right ascension of ascending node: 200.5780°
argument of perigee: 68.3207°
revolutions per day: 15.26998743
mean anomaly at epoch: 86.4722°
orbit number at epoch: 1

The dashed part of the orbit path shows where the satellite is in the earth's shadow,  

DLR